[[[{"header":{"parameterUnit":"kt","parameterCategory":2,"dx":1,"dy":1,"la1":30.253999710083008,"la2":30.299108505249023,"lo1":-89.0895004272461,"lo2":-89.04439544677734,"nx":28,"ny":28,"refTime":"2022-10-24T21:00:00:Z","depth":0,"parameterNumber":1,"parameterNumberName":"U-component_of_WINDS"},"data":[6.6601,6.6561,6.647,6.6379,6.6281,6.6201,6.6142,6.6054,6.596,6.5849,6.5767,6.5664,6.5527,6.5401,6.5302,6.5257,6.5221,6.5276,6.5212,6.5057,6.5029,6.5002,6.5008,6.5271,6.5271,6.5386,6.5387,6.5388,6.6498,6.6402,6.6328,6.6193,6.6127,6.6019,6.59,6.585,6.5779,6.5662,6.5576,6.5467,6.5367,6.5206,6.5091,6.5063,6.5002,6.5039,6.5038,6.5017,6.4849,6.4856,6.509,6.509,6.509,6.509,6.509,6.509,6.6285,6.6265,6.613,6.6046,6.5952,6.5861,6.5822,6.5698,6.562,6.5494,6.5392,6.5308,6.5166,6.4978,6.4889,6.4816,6.4756,6.4763,6.4764,6.4769,6.4788,6.4634,6.4791,6.479,6.4789,6.4788,6.4787,0,6.61,6.6024,6.5946,6.584,6.5773,6.568,6.5578,6.5551,6.5349,6.5292,6.5199,6.5128,6.4986,6.4884,6.4753,6.4655,6.4529,6.4505,6.4509,6.4558,6.462,6.4585,6.4314,6.45,6.4497,6.4495,6.4494,6.4493,6.5877,6.5864,6.5675,6.5632,6.5553,6.5485,6.5424,6.5247,6.5189,6.5032,6.5019,6.4916,6.4823,6.4685,6.453,6.4421,6.4357,6.4439,6.4339,6.4388,6.4355,6.4358,6.4354,6.4462,6.4466,6.4469,6.4472,0,6.576,6.5606,6.5554,6.5365,6.5316,6.531,6.5145,6.5113,6.4993,6.4932,6.4907,6.4716,6.4624,6.4455,6.4314,6.4227,6.4205,6.4147,6.4254,6.4232,6.4288,6.4285,6.4498,6.4516,6.4243,6.4246,6.4248,0,6.5508,6.5496,6.5266,6.5243,6.5223,6.5045,6.5028,6.4923,6.4799,6.4749,6.4582,6.4538,6.4327,6.4257,6.4129,6.408,6.4054,6.3983,6.3949,6.3998,6.4007,6.396,6.3947,6.3874,6.3873,6.3872,6.3871,0,6.5341,6.5202,6.5165,6.5107,6.4902,6.4887,6.48,6.4659,6.4599,6.4493,6.4451,6.4339,6.4277,6.4191,6.4029,6.3967,6.3966,6.3847,6.3893,6.3898,6.39,6.3902,6.4136,6.387,6.387,6.387,6.3869,0,6.5111,6.5014,6.4984,6.4808,6.4778,6.4752,6.4633,6.4571,6.4434,6.4353,6.4267,6.4133,6.4079,6.3973,6.3893,6.3859,6.3806,6.3734,6.3734,6.3716,6.3603,6.3756,6.3998,6.4016,6.3704,6.3702,6.3701,0,6.4962,6.4889,6.4736,6.4709,6.4652,6.4469,6.4435,6.432,6.4209,6.414,6.4014,6.3936,6.3822,6.3772,6.3756,6.3621,6.3665,6.361,6.3506,6.3504,6.3549,6.3769,6.3848,6.3965,6.3681,6.3683,6.3684,0,6.4825,6.4577,6.4583,6.4509,6.433,6.428,6.4242,6.4127,6.409,6.3977,6.3938,6.3823,6.3731,6.3652,6.353,6.3521,6.363,6.3422,6.3416,6.3465,6.3657,6.3731,6.3752,6.3549,6.3551,6.3552,6.3669,0,6.4513,6.4456,6.4466,6.4309,6.4244,6.4217,6.404,6.3994,6.3885,6.3768,6.3707,6.3563,6.344,6.3418,6.3309,6.3345,6.3311,6.3213,6.3096,6.3243,6.3276,6.329,6.3061,6.3056,6.3053,6.3049,0,0,6.4407,6.4321,6.4152,6.411,6.4045,6.3853,6.384,6.3752,6.358,6.3537,6.3471,6.3289,6.3174,6.3118,6.315,6.31,6.3088,6.3044,6.3175,6.319,6.3203,6.3242,6.326,6.3043,6.3041,6.304,6.3039,0,6.4256,6.4152,6.4143,6.4046,6.3897,6.3773,6.3772,6.3587,6.3511,6.3451,6.3289,6.323,6.3089,6.2988,6.2918,6.3047,6.2925,6.3023,6.3154,6.3143,6.3163,6.318,6.3224,6.3242,6.3029,6.303,6.303,0,6.409,6.3957,6.3934,6.3777,6.3676,6.362,6.3456,6.3404,6.3359,6.3144,6.3087,6.2983,6.2832,6.2803,6.2782,6.272,6.2787,6.2733,6.2752,6.2745,6.2726,6.275,6.2772,6.2487,6.2486,6.2485,0,0,6.3983,6.3928,6.3727,6.3731,6.368,6.3495,6.3447,6.3332,6.3205,6.3154,6.3017,6.2895,6.2809,6.2757,6.2668,6.2662,6.2614,6.2674,6.27,6.2721,6.2727,6.2713,6.2737,6.2481,6.2481,6.2481,0,0,6.3929,6.3699,6.3612,6.3595,6.3482,6.3281,6.3288,6.3175,6.3078,6.306,6.2859,6.2817,6.2786,6.2688,6.2653,6.2622,6.251,6.2514,6.2687,6.2717,6.2741,6.2765,6.246,0,0,0,0,0,6.3684,6.3728,6.3652,6.3622,6.342,6.3325,6.3297,6.3135,6.3059,6.3069,6.2936,6.2809,6.2628,6.2592,6.2563,6.2603,6.2426,6.2436,6.2445,6.2666,6.2699,6.2727,0,0,0,0,0,0,6.3671,6.3636,6.365,6.3454,6.3407,6.3321,6.3158,6.3114,6.3054,6.3032,6.2839,6.2803,6.2659,6.2595,6.2572,6.2614,6.2467,6.243,6.2438,6.2446,6.2677,6.2704,6.2727,0,0,0,0,0,6.366,6.3631,6.3351,6.3452,6.3411,6.3206,6.3155,6.3117,6.3067,6.286,6.282,6.2951,6.2665,6.2634,6.2581,6.2628,6.2482,6.2474,6.2435,6.2442,6.2448,6.269,0,0,0,0,0,0,6.3651,6.3594,6.3339,6.332,6.3424,6.3208,6.3169,6.3121,6.2896,6.2858,6.2962,6.2947,6.267,6.2644,6.2621,6.2643,6.2494,6.2486,6.2481,6.244,6.2445,6.245,0,0,0,0,0,0,6.3608,6.358,6.3329,6.3303,6.3279,6.321,6.3175,6.3105,6.2896,6.3009,6.299,6.2958,6.2702,6.2652,6.2634,6.253,6.2504,6.2496,6.249,6.2487,6.2445,6.2449,0,0,0,0,0,0,6.3593,6.3569,6.3306,6.3289,6.3268,6.3045,6.3144,6.2945,6.2879,6.3022,6.2868,6.2863,6.2714,6.2691,6.2643,6.2549,6.2535,6.2503,6.2498,6.2494,6.2492,0,0,0,0,0,0,0,6.3581,6.3785,6.3451,6.3277,6.3259,6.3148,6.3143,6.3137,6.2878,6.2874,6.2869,6.2865,6.2548,6.254,6.2531,6.2564,0,0,6.2504,6.25,0,0,0,0,0,0,0,0,6.3791,6.3787,6.345,6.3447,6.3443,6.3147,6.3143,6.3138,6.2877,6.2874,6.287,6.2867,6.2546,6.2539,6.2532,0,0,0,0,0,0,0,0,0,0,0,0,0,0,0,6.345,6.3447,0,6.3146,6.3143,6.3139,6.2877,6.2874,6.2871,6.2868,6.2544,6.2538,6.2533,0,0,0,0,0,0,0,0,0,0,0,0,0,0,0,0,0,0,0,0,0,0,0,0,0,0,0,0,0,0,0,0,0,0,0,0,0,0,0,0,0,0,0,0,0,0,0,0,0,0,0,0,0,0,0,0,0,0,0,0,0,0,0,0,0,0,0,0,0]}],[{"header":{"parameterUnit":"kt","parameterCategory":2,"dx":1,"dy":1,"la1":30.253999710083008,"la2":30.299108505249023,"lo1":-89.0895004272461,"lo2":-89.04439544677734,"nx":28,"ny":28,"refTime":"2022-10-24T21:00:00:Z","depth":0,"parameterNumber":2,"parameterNumberName":"V-component_of_WINDS"},"data":[11.6074,11.6553,11.6759,11.7398,11.7691,11.8164,11.8399,11.8723,11.9034,11.9619,11.9993,12.0247,12.0639,12.1133,12.1547,12.1652,12.1815,12.1831,12.1953,12.1689,12.1666,12.1645,12.1548,12.1862,12.1863,12.2199,12.2202,12.2204,11.5855,11.615,11.6549,11.7076,11.742,11.7526,11.7953,11.8233,11.8653,11.9039,11.9419,11.9952,12.0399,12.0794,12.1259,12.1486,12.1565,12.1597,12.1587,12.1648,12.1372,12.1266,12.1526,12.1526,12.1525,12.1525,12.1525,12.1525,11.5512,11.579,11.6232,11.667,11.6991,11.7341,11.7643,11.7953,11.8347,11.886,11.903,11.9509,11.9936,12.0601,12.0874,12.1253,12.1255,12.1357,12.1385,12.1407,12.1403,12.0892,12.1341,12.1341,12.1341,12.1341,12.1341,0,11.5327,11.5482,11.5881,11.6341,11.6672,11.7049,11.743,11.7622,11.8023,11.833,11.8794,11.9097,11.9693,12.0153,12.0636,12.0906,12.1053,12.109,12.1162,12.109,12.096,12.1038,12.0582,12.1077,12.1076,12.1075,12.1074,12.1074,11.5,11.5301,11.5865,11.6117,11.6379,11.678,11.7063,11.7395,11.768,11.8197,11.8427,11.8892,11.9284,11.9991,12.0354,12.08,12.0878,12.1044,12.0947,12.086,12.0887,12.0868,12.0901,12.1058,12.106,12.1062,12.1063,0,11.4797,11.5139,11.5674,11.6205,11.6348,11.6645,11.7101,11.7393,11.7665,11.8105,11.8227,11.8656,11.9106,11.9446,12.0028,12.0192,12.0686,12.0747,12.054,12.0573,12.0758,12.0738,12.1302,12.1394,12.1066,12.1068,12.107,0,11.4656,11.5038,11.5528,11.582,11.6255,11.6584,11.7005,11.7283,11.7661,11.8011,11.8233,11.8556,11.8941,11.9314,11.9557,12.002,12.0129,12.0284,12.0345,12.0269,12.0249,12.043,12.0417,12.0466,12.0463,12.0461,12.0458,0,11.4306,11.5017,11.5493,11.5711,11.632,11.6535,11.6798,11.7226,11.75,11.791,11.8093,11.8545,11.8795,11.9141,11.945,11.9371,12.0024,11.9981,12.0184,12.0176,12.0317,12.0305,12.0712,12.0454,12.0453,12.0452,12.0451,0,11.4248,11.4659,11.5297,11.581,11.5984,11.6297,11.6768,11.7116,11.7551,11.7726,11.8052,11.8244,11.8677,11.8608,11.921,11.902,11.9252,11.944,11.9461,11.9527,11.9443,11.9633,11.9982,12.0034,11.9576,11.9569,11.9563,0,11.3754,11.4492,11.4783,11.5382,11.5771,11.6,11.6353,11.6733,11.6998,11.7365,11.7656,11.8073,11.8095,11.8274,11.8525,11.8845,11.909,11.882,11.9348,11.9363,11.923,11.9554,11.9524,11.9866,11.9474,11.9483,11.949,0,11.3418,11.4159,11.4246,11.4511,11.507,11.5397,11.5801,11.629,11.6519,11.6922,11.7272,11.7865,11.7907,11.82,11.8407,11.8651,11.8933,11.8665,11.8681,11.8704,11.9457,11.9427,11.9483,11.9017,11.9028,11.9037,11.942,0,11.3259,11.3674,11.3923,11.4499,11.4806,11.5201,11.5571,11.5844,11.6012,11.6285,11.6804,11.721,11.7708,11.7862,11.803,11.848,11.8461,11.8501,11.8467,11.8673,11.8809,11.8864,11.8233,11.8234,11.8235,11.8236,0,0,11.2704,11.3309,11.3619,11.4028,11.4307,11.4544,11.4934,11.5233,11.5832,11.6019,11.6001,11.6896,11.7228,11.7822,11.7915,11.8115,11.8231,11.8146,11.8571,11.8606,11.8641,11.8779,11.883,11.8238,11.8238,11.8239,11.8239,0,11.2726,11.3059,11.3441,11.3766,11.4258,11.453,11.462,11.5151,11.5344,11.5857,11.6048,11.6403,11.7111,11.744,11.7698,11.8081,11.8207,11.8203,11.8287,11.8567,11.8601,11.8633,11.8774,11.8819,11.8241,11.8241,11.8241,0,11.2464,11.2855,11.3079,11.3727,11.4052,11.4447,11.45,11.4915,11.5212,11.5455,11.5961,11.6237,11.6706,11.7217,11.7461,11.7453,11.8165,11.8006,11.801,11.8048,11.8337,11.8377,11.8413,11.7936,11.7934,11.7931,0,0,11.2431,11.2821,11.3348,11.376,11.3951,11.4363,11.461,11.4808,11.5225,11.5391,11.5751,11.6151,11.6567,11.6834,11.7244,11.7752,11.7878,11.7953,11.7968,11.7978,11.8019,11.8311,11.8351,11.7922,11.7921,11.7921,0,0,11.2419,11.3047,11.3145,11.367,11.4059,11.4608,11.4845,11.4979,11.5387,11.5384,11.5737,11.5859,11.6345,11.661,11.6435,11.7239,11.7196,11.7246,11.705,11.7073,11.7088,11.7017,11.6551,0,0,0,0,0,11.2634,11.2969,11.3051,11.3195,11.4018,11.456,11.4668,11.4968,11.4931,11.5112,11.5434,11.5553,11.6588,11.6442,11.6579,11.6773,11.7796,11.7818,11.7839,11.7708,11.7729,11.7746,0,0,0,0,0,0,11.2694,11.2868,11.3044,11.36,11.3788,11.4551,11.4556,11.4647,11.492,11.4935,11.5487,11.5571,11.5837,11.6393,11.6512,11.669,11.6511,11.7804,11.7823,11.784,11.7715,11.7732,11.7746,0,0,0,0,0,11.2742,11.2883,11.4123,11.3598,11.3761,11.424,11.4545,11.4622,11.4838,11.534,11.5427,11.5041,11.5833,11.5955,11.6465,11.6628,11.6431,11.6474,11.7817,11.7832,11.7845,11.7724,0,0,0,0,0,0,11.2778,11.2957,11.4163,11.4224,11.3496,11.4203,11.4324,11.4599,11.5233,11.5322,11.4909,11.4913,11.5836,11.5929,11.6021,11.6589,11.6365,11.641,11.6437,11.7828,11.784,11.785,0,0,0,0,0,0,11.2884,11.3007,11.4194,11.4048,11.4096,11.4168,11.4276,11.4753,11.5237,11.4767,11.479,11.4903,11.5697,11.5913,11.5985,11.6719,11.6315,11.6357,11.6387,11.6405,11.7838,11.7847,0,0,0,0,0,0,11.2941,11.3048,11.4035,11.4071,11.4112,11.4818,11.4596,11.5421,11.511,11.4735,11.5091,11.5082,11.5678,11.5757,11.5959,11.6661,11.6704,11.6317,11.6345,11.6366,11.6379,0,0,0,0,0,0,0,11.2988,11.2205,11.3802,11.4089,11.4125,11.4787,11.4803,11.482,11.5108,11.51,11.5093,11.5085,11.6075,11.6121,11.6168,11.6614,0,0,11.6313,11.6333,0,0,0,0,0,0,0,0,11.2167,11.2196,11.3803,11.3816,11.3828,11.4789,11.4803,11.4816,11.5107,11.51,11.5094,11.5088,11.6087,11.6125,11.6163,0,0,0,0,0,0,0,0,0,0,0,0,0,0,0,11.3805,11.3815,0,11.4791,11.4802,11.4814,11.5106,11.5101,11.5096,11.5091,11.6098,11.6128,11.616,0,0,0,0,0,0,0,0,0,0,0,0,0,0,0,0,0,0,0,0,0,0,0,0,0,0,0,0,0,0,0,0,0,0,0,0,0,0,0,0,0,0,0,0,0,0,0,0,0,0,0,0,0,0,0,0,0,0,0,0,0,0,0,0,0,0,0,0,0]}]]]